EW7164 Weather Reports


time (UTC)temp
C
wind
direction
speed
KPH
gust
KPH
rain 1hr
cm
rain 24hr
cm
rain mn
cm
humidity
%
barometer
mb
20260905172417 19 350 16.1 25.7 0.00 0.00 0.00 67 1010.7
20260905171417 18 9 8.0 17.7 0.00 0.00 0.00 68 1010.8
20260905165517 18 342 19.3 25.7 0.00 0.00 0.00 68 1010.9
20260905164515 17 21 17.7 20.9 0.00 0.00 0.00 69 1011.0
20260905164416 17 34 14.5 19.3 0.00 0.00 0.00 70 1011.0
20260905164315 17 25 16.1 20.9 0.00 0.00 0.00 70 1010.8
20260905163316 17 1 17.7 33.8 0.00 0.00 0.00 71 1010.9
20260905162316 17 29 17.7 25.7 0.00 0.00 0.00 71 1010.9
20260905161315 18 5 19.3 30.6 0.00 0.00 0.00 68 1010.6
20260905160316 18 17 16.1 25.7 0.00 0.00 0.00 67 1010.7
20260905155416 17 18 16.1 22.5 0.00 0.00 0.00 69 1010.8
20260905154417 18 21 17.7 22.5 0.00 0.00 0.00 69 1010.5
20260905152415 18 19 19.3 27.4 0.00 0.00 0.00 69 1010.8
20260905150516 18 19 14.5 22.5 0.00 0.00 0.00 69 1010.6
20260905150417 18 18 19.3 29.0 0.00 0.00 0.00 70 1010.6
20260905145417 18 4 17.7 27.4 0.00 0.00 0.00 71 1010.6
20260905144514 17 350 12.9 19.3 0.00 0.00 0.00 73 1010.9
20260905142516 17 349 17.7 24.1 0.00 0.00 0.00 74 1010.7
20260905141615 16 18 8.0 19.3 0.00 0.00 0.00 75 1010.9
20260905140614 16 10 12.9 17.7 0.00 0.00 0.00 76 1010.9
20260905135617 16 12 19.3 25.7 0.00 0.00 0.00 77 1010.6
20260905134716 16 6 22.5 37.0 0.00 0.00 0.00 78 1010.6
20260905134614 16 14 16.1 22.5 0.00 0.00 0.00 78 1010.6
20260905133615 16 21 12.9 19.3 0.00 0.00 0.00 79 1010.7
20260905132615 16 9 14.5 25.7 0.00 0.00 0.00 79 1010.7
20260905131617 16 21 17.7 25.7 0.00 0.00 0.00 79 1010.5
20260905130714 16 1 16.1 22.5 0.00 0.00 0.00 77 1010.4
20260905125715 16 22 14.5 25.7 0.00 0.00 0.00 79 1010.4
20260905124716 16 14 14.5 19.3 0.00 0.00 0.00 80 1010.4
20260905123716 15 13 12.9 16.1 0.00 0.00 0.00 82 1010.3
20260905122716 15 358 9.7 20.9 0.00 0.00 0.00 82 1010.1
20260905120914 15 19 11.3 14.5 0.00 0.00 0.00 82 1010.2
20260905115915 15 22 16.1 20.9 0.00 0.00 0.00 81 1010.1
20260905114917 15 19 11.3 20.9 0.00 0.00 0.00 80 1009.9
20260905113916 16 11 16.1 24.1 0.00 0.00 0.00 79 1009.7
20260905112914 16 4 14.5 22.5 0.00 0.00 0.00 80 1009.6
20260905111915 16 347 12.9 17.7 0.00 0.00 0.00 81 1009.5
20260905110916 16 33 11.3 22.5 0.00 0.03 0.00 82 1009.5
20260905110014 16 39 16.1 22.5 0.00 0.03 0.00 82 1009.6
20260905105016 16 31 14.5 22.5 0.00 0.03 0.00 82 1009.4
20260905104916 16 17 16.1 25.7 0.00 0.03 0.00 82 1009.4
20260905104014 16 46 16.1 27.4 0.00 0.03 0.00 83 1009.2
20260905102116 16 3 14.5 20.9 0.00 0.03 0.00 87 1009.1
20260905101115 16 20 11.3 16.1 0.00 0.03 0.00 89 1009.0
20260905101015 16 25 8.0 16.1 0.00 0.03 0.00 89 1009.0
20260905100914 16 23 14.5 19.3 0.00 0.03 0.00 89 1008.9
20260905095916 16 24 8.0 11.3 0.00 0.03 0.00 92 1008.9
20260905094917 16 344 11.3 16.1 0.00 0.03 0.00 93 1008.7
20260905094814 16 331 9.7 16.1 0.00 0.03 0.00 93 1008.7
20260905093816 16 337 8.0 11.3 0.00 0.03 0.00 92 1008.6
20260905092816 16 332 4.8 6.4 0.00 0.03 0.00 93 1008.6
20260905091816 16 319 4.8 8.0 0.00 0.03 0.00 93 1008.5
20260905090817 16 347 4.8 8.0 0.00 0.03 0.00 93 1008.4
20260905085916 16 341 9.7 16.1 0.00 0.03 0.00 93 1008.4
20260905084916 16 317 11.3 16.1 0.00 0.03 0.00 93 1008.4
20260905084015 16 323 9.7 12.9 0.00 0.03 0.00 92 1008.3
20260905083916 16 318 11.3 17.7 0.00 0.03 0.00 93 1008.4
20260905082917 16 317 6.4 11.3 0.00 0.03 0.00 93 1008.4
20260905081914 16 327 8.0 12.9 0.00 0.03 0.00 92 1008.4
20260905080915 16 311 6.4 9.7 0.00 0.03 0.00 93 1008.4
20260905080014 16 327 6.4 12.9 0.00 0.03 0.00 92 1008.4
20260905075917 16 343 6.4 9.7 0.00 0.03 0.00 91 1008.4
20260905074915 16 334 14.5 22.5 0.00 0.03 0.00 91 1008.2
20260905073916 16 338 12.9 19.3 0.00 0.03 0.00 91 1008.2
20260905072916 16 315 12.9 16.1 0.00 0.03 0.00 90 1008.4
20260905071915 16 326 9.7 14.5 0.00 0.03 0.00 90 1008.2
20260905065915 16 315 6.4 11.3 0.00 0.03 0.00 89 1008.4
20260905065816 16 315 11.3 16.1 0.00 0.03 0.00 90 1008.2
20260905064816 16 316 12.9 19.3 0.00 0.03 0.00 91 1008.3
20260905063816 16 315 9.7 16.1 0.00 0.03 0.00 91 1008.2
20260905062815 16 315 6.4 8.0 0.00 0.03 0.00 91 1008.1
20260905061914 16 316 11.3 14.5 0.00 0.03 0.00 91 1008.0
20260905061013 16 312 9.7 11.3 0.00 0.03 0.00 92 1008.1
20260905060015 16 324 11.3 16.1 0.00 0.03 0.00 92 1007.9
20260905055916 16 315 14.5 19.3 0.00 0.03 0.00 92 1008.0
20260905055014 16 321 11.3 16.1 0.00 0.03 0.00 92 1008.0
20260905054916 16 325 12.9 20.9 0.00 0.03 0.00 91 1007.9
20260905053114 16 317 12.9 19.3 0.00 0.03 0.00 91 1007.8
20260905053017 16 331 8.0 11.3 0.00 0.03 0.00 91 1007.8
20260905052115 16 308 8.0 17.7 0.00 0.03 0.00 92 1007.8
20260905051116 16 315 9.7 12.9 0.00 0.03 0.00 91 1007.8
20260905051017 16 327 11.3 17.7 0.00 0.03 0.00 92 1007.9
20260905050016 16 303 12.9 17.7 0.00 0.03 0.00 90 1007.9
20260905045016 17 315 11.3 17.7 0.00 0.03 0.00 91 1008.0
20260905044016 17 316 11.3 17.7 0.00 0.03 0.00 90 1008.0
20260905043014 17 310 12.9 16.1 0.00 0.03 0.00 90 1008.0
20260905042918 17 304 12.9 17.7 0.00 0.03 0.00 89 1008.0
20260905041013 17 302 12.9 19.3 0.00 0.03 0.00 90 1008.1
20260905040915 17 311 12.9 17.7 0.00 0.03 0.00 90 1008.0
20260905040014 17 310 16.1 20.9 0.00 0.03 0.00 89 1008.0
20260905035015 17 315 9.7 14.5 0.00 0.03 0.03 89 1008.1
20260905034917 17 314 11.3 12.9 0.00 0.03 0.03 90 1008.0
20260905033929 17 313 12.9 17.7 0.00 0.03 0.03 89 1008.1
20260905033017 17 290 9.7 14.5 0.00 0.03 0.03 90 1008.0
20260905032016 17 294 12.9 19.3 0.00 0.03 0.03 89 1008.0
20260905031016 17 285 9.7 16.1 0.00 0.03 0.03 89 1008.1
20260905030015 18 275 9.7 11.3 0.00 0.03 0.03 88 1008.1
20260905025016 18 294 12.9 17.7 0.00 0.03 0.03 88 1008.0
20260905023116 18 315 11.3 16.1 0.00 0.03 0.03 88 1008.0
20260905022215 18 296 11.3 17.7 0.00 0.05 0.03 88 1008.1
20260905021232 18 290 9.7 14.5 0.00 0.05 0.03 87 1008.0
20260905020216 18 274 14.5 16.1 0.00 0.05 0.03 88 1008.0
20260905015313 18 270 12.9 17.7 0.00 0.05 0.03 88 1008.1
20260905015216 18 275 14.5 19.3 0.00 0.05 0.03 88 1008.1
20260905014315 18 273 16.1 17.7 0.00 0.05 0.03 88 1008.1
20260905013315 18 274 12.9 16.1 0.00 0.05 0.03 87 1008.2
20260905012317 18 291 11.3 16.1 0.00 0.08 0.03 86 1008.1
20260905011316 19 270 11.3 14.5 0.00 0.08 0.03 86 1008.2
20260905010314 19 270 11.3 14.5 0.00 0.08 0.03 85 1008.4
20260905005315 19 270 11.3 14.5 0.00 0.08 0.03 85 1008.4
20260905003317 19 269 12.9 16.1 0.00 0.10 0.03 85 1008.4
20260905002316 19 272 12.9 20.9 0.00 0.10 0.03 86 1008.3
20260905001315 18 263 11.3 16.1 0.00 0.10 0.03 87 1008.4
20260905001215 18 265 14.5 20.9 0.00 0.10 0.03 87 1008.4
20260904235315 19 265 11.3 20.9 0.00 0.13 0.03 86 1008.4
20260904235216 19 268 11.3 17.7 0.00 0.13 0.03 86 1008.3
20260904234216 19 259 12.9 17.7 0.00 0.15 0.03 85 1008.2
20260904233314 19 268 8.0 12.9 0.00 0.15 0.03 83 1008.3
20260904232316 19 261 8.0 11.3 0.00 0.18 0.03 84 1008.2
20260904231414 19 247 6.4 8.0 0.00 0.18 0.03 84 1008.2
20260904230416 19 225 1.6 8.0 0.00 0.20 0.03 86 1008.2
20260904225415 19 225 3.2 6.4 0.00 0.20 0.03 87 1008.2
20260904224414 20 229 4.8 8.0 0.00 0.23 0.03 87 1008.1
20260904224315 20 239 8.0 12.9 0.00 0.23 0.03 87 1008.2
20260904223315 20 254 3.2 4.8 0.00 0.23 0.03 88 1008.0
20260904222314 20 259 3.2 4.8 0.00 0.25 0.03 86 1008.0
20260904220317 20 225 0.0 0.0 0.00 0.28 0.03 84 1007.8
20260904215416 20 199 4.8 6.4 0.00 0.30 0.03 85 1007.9
20260904214416 21 222 4.8 6.4 0.00 0.33 0.03 84 1007.9
20260904212417 21 239 4.8 6.4 0.00 0.36 0.03 85 1008.0
20260904211515 21 225 3.2 4.8 0.00 0.38 0.03 82 1008.0
20260904210516 22 254 0.0 1.6 0.00 0.38 0.03 79 1008.1
20260904205614 22 22 0.0 0.0 0.00 0.38 0.03 77 1008.1
20260904205514 22 22 0.0 0.0 0.00 0.38 0.03 76 1008.1
20260904204517 22 90 0.0 0.0 0.00 0.41 0.03 74 1008.1
20260904203614 22 90 3.2 3.2 0.00 0.43 0.03 72 1008.0
20260904201616 24 10 6.4 8.0 0.00 0.46 0.03 68 1007.9
20260904195614 22 315 4.8 6.4 0.00 0.48 0.03 73 1008.0
20260904194615 22 62 3.2 4.8 0.00 0.48 0.03 72 1008.0
20260904194514 22 76 4.8 6.4 0.00 0.48 0.03 72 1007.9
20260904192615 22 3 3.2 8.0 0.00 0.53 0.03 72 1008.1
20260904192514 22 335 4.8 12.9 0.00 0.53 0.03 72 1007.9
20260904191614 22 36 4.8 9.7 0.00 0.53 0.03 72 1008.0
20260904190618 22 334 8.0 12.9 0.00 0.56 0.03 73 1008.2
20260904185714 22 329 8.0 11.3 0.00 0.58 0.03 74 1008.2
20260904184814 22 334 6.4 11.3 0.00 0.61 0.03 74 1008.4
20260904184715 22 326 6.4 8.0 0.00 0.61 0.03 73 1008.4
20260904183814 22 360 8.0 11.3 0.00 0.64 0.03 76 1008.4
20260904183713 21 354 4.8 9.7 0.00 0.64 0.03 76 1008.4
20260904182715 21 345 6.4 11.3 0.00 0.66 0.03 77 1008.5
20260904180714 20 316 8.0 14.5 0.00 0.66 0.03 80 1008.7
20260904174715 20 354 6.4 12.9 0.00 0.66 0.03 82 1008.8
20260904173813 20 320 8.0 14.5 0.00 0.69 0.03 84 1008.9